• In Netherlands
  • List of Countries
  • For 7 days
  • Water Temperature
  • Satellite Maps
  • Weather Map
  • Weather Widgets
  • user-avatar
    Login

    Hourly Weather Linz

    Today, 26 June, Monday

    Time Temperature Precipitation Wind Pressure Humidity
    00:00 +16°C° 0.1 mm 2 mps 733 mmHg 94%
    01:00 +15°C° 0.1 mm 2 mps 733 mmHg 94%
    02:00 +15°C° 0 mm 2 mps 733 mmHg 94%
    03:00 +15°C° 0 mm 2 mps 733 mmHg 93%
    04:00 +15°C° 0 mm 2 mps 733 mmHg 93%
    05:00 +16°C° 0 mm 2 mps 733 mmHg 90%
    06:00 +18°C° 0 mm 2 mps 733 mmHg 87%
    07:00 +19°C° 0 mm 2 mps 733 mmHg 83%
    08:00 +21°C° 0 mm 2 mps 733 mmHg 77%
    09:00 +24°C° 0 mm 2 mps 733 mmHg 70%
    10:00 +25°C° 0 mm 3 mps 733 mmHg 63%
    11:00 +26°C° 0 mm 3 mps 733 mmHg 60%
    12:00 +27°C° 0 mm 3 mps 733 mmHg 58%
    13:00 +28°C° 0 mm 3 mps 732 mmHg 55%
    14:00 +28°C° 0 mm 2 mps 732 mmHg 56%
    15:00 +28°C° 0 mm 2 mps 732 mmHg 58%
    16:00 +28°C° 0 mm 2 mps 731 mmHg 59%
    17:00 +27°C° 0 mm 1 mps 731 mmHg 67%
    18:00 +26°C° 0 mm 1 mps 731 mmHg 75%
    19:00 +23°C° 0 mm 0 mps 731 mmHg 82%
    20:00 +22°C° 0 mm 1 mps 731 mmHg 86%
    21:00 +20°C° 0 mm 1 mps 731 mmHg 89%
    22:00 +18°C° 0 mm 1 mps 731 mmHg 92%
    23:00 +18°C° 0 mm 1 mps 731 mmHg 91%

    Tomorrow, 27 June, Tuesday

    Time Temperature Precipitation Wind Pressure Humidity
    00:00 +18°C° 0 mm 1 mps 731 mmHg 91%
    01:00 +19°C° 0 mm 1 mps 731 mmHg 91%
    02:00 +18°C° 0 mm 1 mps 731 mmHg 91%
    03:00 +18°C° 0 mm 1 mps 730 mmHg 91%
    04:00 +18°C° 0 mm 1 mps 730 mmHg 91%
    05:00 +19°C° 0 mm 1 mps 730 mmHg 87%
    06:00 +21°C° 0 mm 1 mps 730 mmHg 82%
    07:00 +23°C° 0 mm 1 mps 730 mmHg 78%
    08:00 +24°C° 0 mm 1 mps 730 mmHg 73%
    09:00 +26°C° 0 mm 1 mps 730 mmHg 68%
    10:00 +27°C° 0 mm 1 mps 730 mmHg 63%
    11:00 +28°C° 0 mm 1 mps 730 mmHg 60%
    12:00 +29°C° 0 mm 1 mps 729 mmHg 58%
    13:00 +29°C° 0 mm 1 mps 729 mmHg 56%
    14:00 +29°C° 0.5 mm 1 mps 728 mmHg 56%
    15:00 +29°C° 0.5 mm 1 mps 728 mmHg 57%
    16:00 +30°C° 0.5 mm 1 mps 728 mmHg 57%
    17:00 +28°C° 0.2 mm 1 mps 728 mmHg 65%
    18:00 +27°C° 0.2 mm 1 mps 727 mmHg 73%
    19:00 +26°C° 0.2 mm 1 mps 727 mmHg 81%
    20:00 +24°C° 0 mm 1 mps 727 mmHg 83%
    21:00 +21°C° 0 mm 1 mps 727 mmHg 86%
    22:00 +19°C° 0 mm 1 mps 727 mmHg 89%
    23:00 +19°C° 0 mm 1 mps 727 mmHg 88%

    Day after tomorrow, 28 June, Wednesday

    Time Temperature Precipitation Wind Pressure Humidity
    00:00 +19°C° 0 mm 1 mps 726 mmHg 87%
    01:00 +19°C° 0 mm 1 mps 726 mmHg 86%
    02:00 +19°C° 0 mm 1 mps 726 mmHg 87%
    03:00 +19°C° 0 mm 1 mps 725 mmHg 87%
    04:00 +18°C° 0 mm 1 mps 725 mmHg 87%
    05:00 +20°C° 0 mm 1 mps 725 mmHg 83%
    06:00 +22°C° 0 mm 1 mps 725 mmHg 79%
    07:00 +24°C° 0 mm 1 mps 725 mmHg 74%
    08:00 +26°C° 0 mm 1 mps 724 mmHg 68%
    09:00 +28°C° 0 mm 1 mps 724 mmHg 62%
    10:00 +30°C° 0 mm 1 mps 724 mmHg 56%
    11:00 +30°C° 0 mm 1 mps 724 mmHg 54%
    12:00 +31°C° 0 mm 2 mps 723 mmHg 52%
    13:00 +32°C° 0 mm 2 mps 723 mmHg 50%
    14:00 +31°C° 0.5 mm 2 mps 723 mmHg 53%
    15:00 +31°C° 0.5 mm 2 mps 723 mmHg 57%
    16:00 +30°C° 0.5 mm 3 mps 722 mmHg 61%
    17:00 +29°C° 0.2 mm 2 mps 722 mmHg 69%
    18:00 +27°C° 0.2 mm 1 mps 722 mmHg 77%
    19:00 +26°C° 0.2 mm 1 mps 721 mmHg 84%
    20:00 +24°C° 1.6 mm 1 mps 721 mmHg 88%
    21:00 +23°C° 1.6 mm 1 mps 721 mmHg 91%
    22:00 +22°C° 1.6 mm 1 mps 721 mmHg 94%
    23:00 +20°C° 0.1 mm 2 mps 720 mmHg 93%

    29 June, Thursday

    Time Temperature Precipitation Wind Pressure Humidity
    00:00 +20°C° 0.1 mm 2 mps 719 mmHg 93%
    01:00 +19°C° 0.1 mm 3 mps 719 mmHg 92%
    02:00 +19°C° 0 mm 2 mps 719 mmHg 92%
    03:00 +18°C° 0 mm 2 mps 718 mmHg 92%
    04:00 +18°C° 0 mm 2 mps 718 mmHg 92%
    05:00 +19°C° 0 mm 3 mps 718 mmHg 90%
    06:00 +19°C° 0 mm 3 mps 719 mmHg 89%
    07:00 +20°C° 0 mm 4 mps 719 mmHg 87%
    08:00 +20°C° 0.3 mm 4 mps 719 mmHg 84%
    09:00 +21°C° 0.3 mm 5 mps 719 mmHg 81%
    10:00 +21°C° 0.3 mm 5 mps 720 mmHg 79%
    11:00 +21°C° 0.6 mm 5 mps 720 mmHg 79%
    12:00 +22°C° 0.6 mm 5 mps 720 mmHg 79%
    13:00 +22°C° 0.6 mm 5 mps 720 mmHg 79%
    14:00 +21°C° 1.5 mm 5 mps 721 mmHg 84%
    15:00 +19°C° 1.5 mm 4 mps 721 mmHg 88%
    16:00 +18°C° 1.5 mm 4 mps 721 mmHg 92%
    17:00 +18°C° 1.6 mm 4 mps 722 mmHg 93%
    18:00 +17°C° 1.6 mm 4 mps 722 mmHg 94%
    19:00 +15°C° 1.6 mm 4 mps 723 mmHg 95%
    20:00 +15°C° 1.6 mm 4 mps 724 mmHg 95%
    21:00 +14°C° 1.6 mm 5 mps 724 mmHg 95%
    22:00 +14°C° 1.6 mm 5 mps 725 mmHg 95%
    23:00 +13°C° 0.4 mm 5 mps 725 mmHg 95%

    30 June, Friday

    Time Temperature Precipitation Wind Pressure Humidity
    00:00 +13°C° 0.4 mm 4 mps 726 mmHg 95%
    01:00 +12°C° 0.4 mm 4 mps 726 mmHg 95%
    02:00 +12°C° 0 mm 4 mps 727 mmHg 94%
    03:00 +11°C° 0 mm 3 mps 727 mmHg 94%
    04:00 +10°C° 0 mm 3 mps 727 mmHg 94%
    05:00 +12°C° 0 mm 3 mps 728 mmHg 91%
    06:00 +13°C° 0 mm 3 mps 728 mmHg 87%
    07:00 +16°C° 0 mm 3 mps 728 mmHg 84%
    08:00 +17°C° 0 mm 4 mps 729 mmHg 74%
    09:00 +19°C° 0 mm 4 mps 729 mmHg 65%
    10:00 +20°C° 0 mm 4 mps 729 mmHg 56%
    11:00 +21°C° 0 mm 4 mps 729 mmHg 56%
    12:00 +21°C° 0 mm 4 mps 729 mmHg 55%
    13:00 +22°C° 0 mm 4 mps 729 mmHg 55%
    14:00 +22°C° 0.1 mm 3 mps 729 mmHg 57%
    15:00 +22°C° 0.1 mm 3 mps 729 mmHg 58%
    16:00 +23°C° 0.1 mm 2 mps 729 mmHg 60%
    17:00 +21°C° 0.1 mm 2 mps 729 mmHg 66%
    18:00 +20°C° 0.1 mm 2 mps 729 mmHg 73%
    19:00 +20°C° 0.1 mm 1 mps 729 mmHg 79%
    20:00 +18°C° 0.1 mm 2 mps 730 mmHg 83%
    21:00 +16°C° 0.1 mm 2 mps 730 mmHg 87%
    22:00 +15°C° 0.1 mm 2 mps 731 mmHg 91%
    23:00 +15°C° 0 mm 2 mps 731 mmHg 90%

    1 July, Saturday

    Time Temperature Precipitation Wind Pressure Humidity
    00:00 +15°C° 0 mm 2 mps 731 mmHg 90%
    01:00 +15°C° 0 mm 1 mps 731 mmHg 90%
    02:00 +14°C° 0 mm 1 mps 731 mmHg 91%
    03:00 +13°C° 0 mm 1 mps 731 mmHg 92%
    04:00 +12°C° 0 mm 1 mps 731 mmHg 93%
    05:00 +13°C° 0 mm 1 mps 731 mmHg 88%
    06:00 +15°C° 0 mm 1 mps 731 mmHg 83%
    07:00 +18°C° 0 mm 1 mps 731 mmHg 78%
    08:00 +19°C° 0 mm 1 mps 731 mmHg 72%
    09:00 +19°C° 0 mm 2 mps 731 mmHg 66%
    10:00 +20°C° 0 mm 2 mps 731 mmHg 60%
    11:00 +21°C° 0.2 mm 2 mps 731 mmHg 60%
    12:00 +23°C° 0.2 mm 2 mps 731 mmHg 59%
    13:00 +22°C° 0.2 mm 3 mps 731 mmHg 59%
    14:00 +22°C° 0.3 mm 3 mps 731 mmHg 62%
    15:00 +22°C° 0.3 mm 3 mps 730 mmHg 65%
    16:00 +22°C° 0.3 mm 3 mps 730 mmHg 68%
    17:00 +21°C° 0.3 mm 3 mps 731 mmHg 74%
    18:00 +19°C° 0.3 mm 3 mps 731 mmHg 81%
    19:00 +18°C° 0.3 mm 3 mps 731 mmHg 87%
    20:00 +17°C° 0.4 mm 2 mps 732 mmHg 90%
    21:00 +16°C° 0.4 mm 2 mps 732 mmHg 93%
    22:00 +14°C° 0.4 mm 2 mps 733 mmHg 95%
    23:00 +13°C° 0.4 mm 3 mps 733 mmHg 96%
    Show more